Volver al catálogo

DMSP 5D-2 F13 DEB

ActivoSSO
NORAD 40443·DEBRIS·🇺🇸 United States

Lanzado Mar 24, 1995 desde Vandenberg Space Force Base

Loading…

Próximos Pases (próximas 24 horas)

TLE

ActualizadoSource: Space-Track

Época: Sep 13, 2026, 23:17 UTC

1 40443U 95015AV  26256.97081026  .00000089  00000-0  58023-4 0  9998
2 40443  98.6134 269.0217 0040841  83.8506 276.7324 14.23000713598657

Sigue DMSP 5D-2 F13 DEB en tiempo real con AllMySat

Download on the App Store